Location: LDNL
(36.4545°S, 141.6685°E)
Time: 11:08:37
(UTC+10:00)

Tiros 1 despin weight - Pass Details

Date: 17 August 2022
Orbit: 590 x 639 km, 48.2° (Epoch: 23 September)

Event Time Altitude Azimuth Distance (km) Brightness Sun altitude
Rises 00:45:29 0° 257° (WSW) 2,911 - -67.1°
Reaches altitude 10° 00:48:16 10° 241° (WSW) 2,016 - -67.0°
Maximum altitude 00:51:50 21° 190° (S) 1,425 - -66.9°
Drops below altitude 10° 00:55:27 10° 140° (SE) 2,041 - -66.8°
Sets 00:58:17 0° 124° (SE) 2,957 - -66.7°
